Cooperstown, ND

4:11 AM CDT on May 23, 2017 (GMT -0500)
Cooperstown

Weather History for KS32 - March, 2013

Change the Weather History Date:

Monday, March 4, 2013

  Actual Average (KJMS) Record (KJMS)
Temperature  
Mean Temperature 24 °F -  
Max Temperature 24 °F 29 °F 60 °F (2000)
Min Temperature 23 °F 11 °F -26 °F (1917)
Degree Days  
Heating Degree Days 42    
Moisture  
Dew Point 24 °F    
Average Humidity 100    
Maximum Humidity 100    
Minimum Humidity 100    
Precipitation  
Precipitation 0.81 in - - ()
Sea Level Pressure  
Sea Level Pressure 29.79 in    
Wind  
Wind Speed 21 mph (ESE)    
Max Wind Speed 25 mph    
Max Gust Speed 31 mph    
Visibility 2 miles    
Events Rain , Snow    
Averages and records for this station are not official NWS values.
T = Trace of Precipitation, MM = Missing Value Source: NWS Daily Summary

Daily Weather History Graph

Daily Weather History Graph

Search for Another Location

Airport or City:

Trip Planner

Search our weather history database for the weather conditions in past years. The results will help you decide how hot, cold, wet, or windy it might be!

Date:

Astronomy

Mar. 04, 2013 Rise Set
Actual Time 7:06 AM CST 6:22 PM CST
Civil Twilight 6:35 AM CST 6:53 PM CST
Nautical Twilight 6:00 AM CST 7:28 PM CST
Astronomical Twilight 5:24 AM CST 8:04 PM CST
Moon 1:34 AM CST (3/4) 10:47 AM CST (3/4)
Length of Visible Light 12h 17m
Length of Day
11h 15m
Waning Gibbous, 52% of the Moon is Illuminated
Mar 4
Waning Gibbous
Mar 4
Last Quarter
Mar 11
New
Mar 19
First Quarter
Mar 27
Full

Hourly Weather History & Observations

Time (CST) Temp. Windchill Dew Point Humidity Pressure Visibility Wind Dir Wind Speed Gust Speed Precip Events Conditions
12:15 AM 23.0 °F 7.2 °F 23.0 °F 100% 29.76 in 0.5 mi SE 23.0 mph 29.9 mph 0.03 in Snow Snow
12:35 AM 23.0 °F 7.2 °F 23.0 °F 100% 29.76 in 0.5 mi SE 23.0 mph 28.8 mph 0.08 in Snow Snow
12:55 AM 23.0 °F 6.6 °F 23.0 °F 100% 29.75 in 0.5 mi SE 25.3 mph 31.1 mph 0.13 in Snow Snow
1:15 AM 23.0 °F 8.0 °F 23.0 °F 100% 29.76 in 0.5 mi SE 20.7 mph - 0.02 in Snow Snow
1:55 AM 23.0 °F 6.6 °F 23.0 °F 100% 29.75 in 0.5 mi ESE 25.3 mph 31.1 mph 0.09 in Snow Snow
2:15 AM 23.0 °F 6.9 °F 23.0 °F 100% 29.75 in 0.8 mi SE 24.2 mph 31.1 mph 0.01 in Snow Light Snow
2:35 AM 23.0 °F 7.2 °F 23.0 °F 100% 29.74 in 1.0 mi SE 23.0 mph 28.8 mph 0.04 in Snow Light Snow
2:55 AM 23.0 °F 7.6 °F 23.0 °F 100% 29.74 in 1.0 mi SE 21.9 mph 28.8 mph 0.06 in Snow Light Snow
3:15 AM 23.0 °F 7.6 °F 23.0 °F 100% 29.74 in 1.0 mi ESE 21.9 mph - 0.01 in Snow Light Snow
3:35 AM 23.0 °F 7.6 °F 23.0 °F 100% 29.74 in 1.0 mi SE 21.9 mph 25.3 mph 0.02 in Snow Light Snow
3:55 AM 23.0 °F 8.3 °F 23.0 °F 100% 29.75 in 1.0 mi SE 19.6 mph - 0.04 in Snow Light Snow
4:15 AM 23.0 °F 8.7 °F 23.0 °F 100% 29.76 in 0.8 mi SE 18.4 mph 26.5 mph 0.01 in Snow Light Snow
4:35 AM 23.0 °F 8.0 °F 23.0 °F 100% 29.75 in 0.5 mi SE 20.7 mph - 0.06 in Snow Snow
4:55 AM 23.0 °F 8.0 °F 23.0 °F 100% 29.75 in 1.0 mi SE 20.7 mph - 0.07 in Snow Light Snow
5:15 AM 23.0 °F 7.6 °F 23.0 °F 100% 29.74 in 1.2 mi SE 21.9 mph 26.5 mph N/A Rain Light Freezing Rain
5:35 AM 23.0 °F 8.0 °F 23.0 °F 100% 29.74 in 1.2 mi SE 20.7 mph 27.6 mph N/A Snow Light Snow
5:55 AM 23.0 °F 8.0 °F 23.0 °F 100% 29.75 in 1.8 mi SE 20.7 mph - 0.01 in Snow Light Snow
6:15 AM 23.0 °F 7.6 °F 23.0 °F 100% 29.74 in 1.0 mi SE 21.9 mph 28.8 mph N/A Snow Light Snow
6:35 AM 23.0 °F 8.0 °F 23.0 °F 100% 29.74 in 0.8 mi SE 20.7 mph 26.5 mph 0.02 in Snow Light Snow
6:55 AM 23.0 °F 8.3 °F 23.0 °F 100% 29.74 in 0.8 mi SE 19.6 mph - 0.04 in Snow Light Snow
7:15 AM 23.0 °F 8.3 °F 23.0 °F 100% 29.74 in 0.8 mi SE 19.6 mph 25.3 mph N/A Snow Light Snow
7:35 AM 23.0 °F 8.7 °F 23.0 °F 100% 29.74 in 0.8 mi SE 18.4 mph 24.2 mph 0.01 in Snow Light Snow
7:55 AM 23.0 °F 7.6 °F 23.0 °F 100% 29.74 in 1.0 mi SE 21.9 mph 26.5 mph 0.02 in Snow Light Snow
8:15 AM 23.0 °F 8.0 °F 23.0 °F 100% 29.74 in 2.5 mi SE 20.7 mph 28.8 mph N/A Rain Light Freezing Rain
8:35 AM 23.0 °F 7.2 °F 23.0 °F 100% 29.73 in 2.5 mi SE 23.0 mph - N/A Rain Light Freezing Rain
8:55 AM 23.0 °F 8.3 °F 23.0 °F 100% 29.73 in 0.8 mi SE 19.6 mph 28.8 mph N/A Snow Light Snow
9:15 AM 23.0 °F 7.2 °F 23.0 °F 100% 29.73 in 1.0 mi SE 23.0 mph 27.6 mph N/A Snow Light Snow
9:35 AM 23.0 °F 8.3 °F 23.0 °F 100% 29.73 in 0.2 mi SE 19.6 mph - 0.03 in Snow Heavy Snow
9:55 AM 23.0 °F 8.0 °F 23.0 °F 100% 29.73 in 2.0 mi SE 20.7 mph - 0.04 in Rain Light Freezing Rain
10:15 AM 23.0 °F 7.6 °F 23.0 °F 100% 29.73 in 5.0 mi SE 21.9 mph 27.6 mph N/A   Overcast
10:35 AM 23.0 °F 8.3 °F 23.0 °F 100% 29.74 in 5.0 mi SE 19.6 mph 25.3 mph N/A   Overcast
10:55 AM 23.0 °F 7.2 °F 23.0 °F 100% 29.74 in 3.0 mi SE 23.0 mph - N/A Rain Light Freezing Rain
11:15 AM 23.0 °F 7.6 °F 23.0 °F 100% 29.75 in 2.0 mi SE 21.9 mph 25.3 mph N/A Rain Light Freezing Rain
11:35 AM 24.8 °F 10.7 °F 24.8 °F 100% 29.75 in 1.0 mi SE 19.6 mph - 0.01 in Snow Light Snow
11:55 AM 24.8 °F 9.6 °F 24.8 °F 100% 29.75 in 1.0 mi SE 23.0 mph 27.6 mph 0.02 in Snow Light Snow
12:15 PM 24.8 °F 10.0 °F 24.8 °F 100% 29.75 in 2.5 mi SE 21.9 mph 27.6 mph N/A Rain Light Freezing Rain
12:55 PM 24.8 °F 9.3 °F 24.8 °F 100% 29.75 in 3.0 mi SE 24.2 mph 29.9 mph N/A   Overcast
1:15 PM 24.8 °F 9.0 °F 24.8 °F 100% 29.75 in 4.0 mi SE 25.3 mph 29.9 mph N/A   Overcast
1:35 PM 24.8 °F 10.3 °F 24.8 °F 100% 29.75 in 4.0 mi SE 20.7 mph 27.6 mph N/A   Overcast
1:55 PM 24.8 °F 10.7 °F 24.8 °F 100% 29.75 in 3.0 mi SE 19.6 mph 27.6 mph N/A   Overcast
2:15 PM 24.8 °F 11.1 °F 24.8 °F 100% 29.76 in 3.0 mi SE 18.4 mph 26.5 mph N/A   Overcast
2:35 PM 24.8 °F 11.5 °F 24.8 °F 100% 29.76 in 3.0 mi SE 17.3 mph 25.3 mph N/A   Overcast
2:55 PM 24.8 °F 10.7 °F 24.8 °F 100% 29.77 in 2.0 mi SE 19.6 mph 23.0 mph N/A   Overcast
3:15 PM 24.8 °F 11.1 °F 24.8 °F 100% 29.78 in 2.0 mi SE 18.4 mph 23.0 mph N/A   Overcast
3:35 PM 24.8 °F 10.3 °F 24.8 °F 100% 29.78 in 1.2 mi SE 20.7 mph 24.2 mph N/A   Overcast
3:55 PM 24.8 °F 10.7 °F 24.8 °F 100% 29.79 in 0.8 mi SE 19.6 mph 24.2 mph N/A   Overcast
4:15 PM 24.8 °F 11.1 °F 24.8 °F 100% 29.79 in 1.0 mi ESE 18.4 mph - N/A Rain Light Freezing Rain
4:35 PM 24.8 °F 9.0 °F 24.8 °F 100% 29.78 in 1.0 mi ESE 25.3 mph 31.1 mph N/A Rain Light Freezing Rain
4:55 PM 24.8 °F 10.0 °F 24.8 °F 100% 29.80 in 1.0 mi ESE 21.9 mph - N/A   Overcast
5:15 PM 24.8 °F 10.7 °F 24.8 °F 100% 29.82 in 0.8 mi ESE 19.6 mph - N/A Rain Light Freezing Rain
5:35 PM 24.8 °F 11.1 °F 24.8 °F 100% 29.83 in 1.0 mi ESE 18.4 mph - N/A Rain Light Freezing Rain
5:55 PM 24.8 °F 10.7 °F 24.8 °F 100% 29.84 in 0.8 mi ESE 19.6 mph - N/A Rain Light Freezing Rain
6:15 PM 24.8 °F 10.7 °F 24.8 °F 100% 29.85 in 1.0 mi ESE 19.6 mph - N/A Rain Light Freezing Rain
6:35 PM 24.8 °F 10.7 °F 24.8 °F 100% 29.85 in 1.0 mi ESE 19.6 mph 26.5 mph N/A Rain Light Freezing Rain
6:55 PM 23.0 °F 9.6 °F 23.0 °F 100% 29.87 in 1.5 mi East 16.1 mph - N/A Snow Light Snow
7:15 PM 23.0 °F 8.7 °F 23.0 °F 100% 29.89 in 2.0 mi East 18.4 mph - 0.01 in Snow Light Snow
7:35 PM 23.0 °F 8.3 °F 23.0 °F 100% 29.89 in 1.8 mi East 19.6 mph 23.0 mph 0.02 in Snow Light Snow
7:55 PM 23.0 °F 9.2 °F 23.0 °F 100% 29.91 in 1.8 mi East 17.3 mph - 0.04 in Snow Light Snow
8:15 PM 23.0 °F 8.7 °F 23.0 °F 100% 29.91 in 2.0 mi East 18.4 mph - 0.01 in Snow Light Snow
8:35 PM 23.0 °F 9.2 °F 23.0 °F 100% 29.92 in 2.5 mi East 17.3 mph - 0.02 in Rain Light Freezing Rain
8:55 PM 23.0 °F 9.6 °F 23.0 °F 100% 29.94 in 3.0 mi ENE 16.1 mph - 0.03 in Rain Light Freezing Rain
9:15 PM 23.0 °F 9.6 °F 23.0 °F 100% 29.95 in 3.0 mi ENE 16.1 mph - N/A Rain Light Freezing Rain
9:35 PM 23.0 °F 9.2 °F 23.0 °F 100% 29.95 in 3.0 mi ENE 17.3 mph - 0.01 in Snow Light Snow
9:55 PM 23.0 °F 9.2 °F 23.0 °F 100% 29.96 in 4.0 mi ENE 17.3 mph - 0.02 in Snow Light Snow
11:35 PM 23.0 °F 11.1 °F 23.0 °F 100% 29.99 in 1.2 mi NE 12.7 mph - 0.13 in   Overcast
11:55 PM 23.0 °F 11.1 °F 23.0 °F 100% 30.00 in 1.2 mi NNE 12.7 mph - 0.20 in Snow Light Snow